{"data":{"norad_id":55671,"intl_designator":"2023-021AV","name":"STARLINK-5460","alt_names":[],"object_type":"PAYLOAD","status":"ACTIVE","operator":null,"country":"US","launch_date":"2023-02-17","launch_site_code":"AFWTR","launch_vehicle":null,"mission":null,"orbit_class":"UNKNOWN","rcs_meters":null,"size_class":null,"mass_kg":null,"dimensions":null,"purposes":["comms"],"wikipedia_slug":null,"has_3d_model":false,"image_url":null,"decayed_at":null,"tle_current":{"epoch":"2026-09-20T10:59:07.567872Z","epoch_age_seconds":106725,"freshness":"FRESH","line1":"1 55671U 23021AV  26263.45772648  .00005266  00000+0  44925-3 0  9999","line2":"2 55671  70.0032  33.5780 0002317 263.1491  96.9404 14.98288646198458","mean_motion":14.98288646,"eccentricity":0.0002317,"inclination_deg":70.0032,"raan_deg":33.578,"arg_perigee_deg":263.1491,"mean_anomaly_deg":96.9404,"bstar":0.00044925,"rev_number":19845,"period_min":96.109651757983,"perigee_km":570.57338839532,"apogee_km":573.79416704372,"semimajor_km":6950.3207777195,"source":"CELESTRAK","updated_at":"2026-09-21T09:00:33.309904Z"}}}